Home   Weather   Copenhagen   Past weeks

Flag for Denmark Past Weather in Copenhagen, Denmark — Yesterday and Last 2 Weeks

Now
45 °F

Passing clouds.


Feels Like: 38 °F
Forecast: 42 / 44 °F
Wind: 13 mph from West

Location: Koebenhavn-Kastrup Airport

Current Time: Dec 10, 2016 at 11:46:55 pm

Latest Report: Dec 10, 2016 at 11:20 pm


Visibility: N/A

Pressure: 29.89 "Hg

Humidity: 93%

Dew Point: 43 °F

Location of CopenhagenLocation

Past Weather in Copenhagen — Graph

°F

Copenhagen Temperature Yesterday

Maximum temperature yesterday: 50 °F (at 8:20 am)
Minimum temperature yesterday: 46 °F (at 9:20 am)
Average temperature yesterday: 48 °F

High & Low Weather Summary for the Past Weeks

 TemperatureHumidityPressure
High54 °F (Dec 8, 11:50 am)100% (Nov 26, 12:50 am)30.51 "Hg (Nov 26, 12:50 am)
Low23 °F (Dec 3, 6:50 am)41% (Nov 28, 1:50 pm)29.59 "Hg (Dec 1, 6:50 pm)
Average41 °F83%30.11 "Hg
* Reported Nov 25 10:20 pm — Dec 10 10:20 pm, Copenhagen, Weather by CustomWeather, © 2016

Note: Actual official high and low records may vary slightly from our data, if they occured in-between our weather recording intervals... More about our weather records

Advertising

Copenhagen Weather History for the Previous 24 Hours

Scroll right to see more
 ConditionsComfort  
Time TempWeatherWind HumidityBarometerVisibility
10:20 pm
Sat, Dec 10
46 °FPartly cloudy.12 mph87%29.89 "HgN/A
9:50 pm46 °FPartly cloudy.14 mph87%29.89 "HgN/A
9:20 pm46 °FPassing clouds.15 mph87%29.89 "HgN/A
8:50 pm45 °FPassing clouds.10 mph93%29.92 "HgN/A
8:20 pm46 °FClear.14 mph87%29.92 "Hg10 mi
7:50 pm46 °FClear.13 mph87%29.92 "Hg10 mi
7:20 pm48 °FClear.16 mph82%29.92 "Hg10 mi
6:50 pm48 °FClear.16 mph82%29.92 "Hg10 mi
6:20 pm48 °FClear.16 mph87%29.92 "Hg10 mi
5:50 pm48 °FPassing clouds.15 mph87%29.92 "HgN/A
5:20 pm50 °FPassing clouds.20 mph82%29.92 "HgN/A
4:50 pm50 °FPartly cloudy.17 mph82%29.92 "HgN/A
4:20 pm50 °FPartly cloudy.16 mph88%29.92 "HgN/A
3:50 pm50 °FPassing clouds.17 mph82%29.89 "HgN/A
3:20 pm50 °FPassing clouds.17 mph88%29.89 "HgN/A
2:50 pm50 °FPartly sunny.17 mph88%29.89 "HgN/A
2:20 pm50 °FPartly sunny.13 mph88%29.89 "HgN/A
1:50 pm50 °FPartly sunny.17 mph88%29.89 "HgN/A
1:20 pm50 °FPartly sunny.18 mph88%29.89 "HgN/A
12:50 pm50 °FPartly sunny.16 mph94%29.89 "HgN/A
12:20 pm50 °FPartly sunny.14 mph94%29.89 "HgN/A
11:50 am50 °FPartly sunny.20 mph94%29.89 "HgN/A
11:20 am50 °FPartly sunny.17 mph94%29.89 "HgN/A
10:50 am50 °FPartly sunny.20 mph94%29.89 "HgN/A
10:20 am50 °FPartly sunny.16 mph94%29.89 "HgN/A
9:50 am50 °FPartly sunny.17 mph94%29.89 "HgN/A
9:20 am48 °FPartly sunny.16 mph100%29.89 "HgN/A
8:50 am50 °FLight rain. Partly sunny.17 mph94%29.89 "HgN/A
8:20 am50 °FLight rain. Passing clouds.15 mph100%29.89 "Hg5 mi
7:50 am50 °FLight rain. Passing clouds.15 mph100%29.89 "Hg5 mi
7:20 am52 °FLight rain. Passing clouds.15 mph88%29.89 "Hg5 mi
6:50 am50 °FLight rain. Passing clouds.16 mph100%29.86 "Hg5 mi
6:20 am50 °FLight rain. Passing clouds.14 mph100%29.86 "HgN/A
5:50 am52 °FLight rain. Passing clouds.14 mph94%29.86 "HgN/A
5:20 am50 °FLight rain. Passing clouds.15 mph100%29.86 "HgN/A
4:50 am50 °FLight rain. Passing clouds.14 mph100%29.89 "HgN/A
4:20 am50 °FRain. Passing clouds.13 mph94%29.89 "HgN/A
3:50 am50 °FRain. Passing clouds.13 mph94%29.89 "HgN/A
3:20 am50 °FRain. Passing clouds.13 mph94%29.89 "Hg5 mi
2:50 am48 °FRain. Passing clouds.13 mph100%29.92 "Hg2 mi
2:20 am48 °FRain. Partly cloudy.14 mph100%29.92 "Hg2 mi
1:50 am48 °FRain. Passing clouds.15 mph94%29.92 "Hg2 mi
1:20 am48 °FRain. Passing clouds.14 mph94%29.92 "Hg3 mi
12:50 am46 °FRain. Passing clouds.15 mph100%29.95 "Hg3 mi
12:20 am46 °FRain. Passing clouds.14 mph100%29.95 "Hg4 mi
11:50 pm
Fri, Dec 9
46 °FRain. Passing clouds.14 mph100%29.98 "Hg2 mi
11:20 pm46 °FRain. Passing clouds.12 mph100%29.98 "Hg2 mi
Weather by CustomWeather, © 2016

See weather overviewHow to use our weather pages